FW9150 Weather Reports


time (UTC)temp
C
wind
direction
speed
KPH
gust
KPH
rain 1hr
cm
rain 24hr
cm
rain mn
cm
humidity
%
barometer
mb
20260506185511 18 293 0.0 1.6 0.00 0.00 0.00 66 1024.2
20260506184527 18 292 0.0 1.6 0.00 0.00 0.00 63 1024.2
20260506183611 18 176 1.6 4.8 0.00 0.00 0.00 63 1024.0
20260506182612 19 118 0.0 4.8 0.00 0.00 0.00 62 1023.9
20260506181612 19 157 0.0 1.6 0.00 0.00 0.00 59 1023.8
20260506180611 20 164 1.6 4.8 0.00 0.00 0.00 61 1023.8
20260506175611 19 130 1.6 3.2 0.00 0.00 0.00 62 1023.6
20260506172810 17 157 0.0 0.0 0.00 0.00 0.00 68 1023.6
20260506171811 17 157 1.6 3.2 0.00 0.00 0.00 70 1023.8
20260506170812 16 157 0.0 1.6 0.00 0.00 0.00 72 1023.8
20260506165811 15 157 0.0 1.6 0.00 0.00 0.00 74 1023.6
20260506164810 14 180 0.0 1.6 0.00 0.00 0.00 77 1023.6
20260506163827 13 180 0.0 1.6 0.00 0.00 0.00 79 1023.6
20260506162811 12 180 1.6 1.6 0.00 0.00 0.00 83 1023.4
20260506161811 11 180 1.6 1.6 0.00 0.00 0.00 88 1023.4
20260506160911 10 180 0.0 1.6 0.00 0.00 0.00 93 1023.4
20260506155912 8 180 0.0 1.6 0.00 0.00 0.00 95 1023.3
20260506154911 7 180 1.6 1.6 0.00 0.00 0.00 95 1023.3
20260506153911 6 180 0.0 1.6 0.00 0.00 0.00 95 1023.2
20260506152913 6 180 0.0 1.6 0.00 0.00 0.00 95 1023.0
20260506151910 5 180 0.0 1.6 0.00 0.00 0.00 95 1023.0
20260506150911 5 180 0.0 0.0 0.00 0.03 0.00 95 1023.0
20260506145912 5 180 0.0 1.6 0.00 0.03 0.00 95 1022.8
20260506144011 3 180 0.0 0.0 0.00 0.08 0.00 95 1022.8
20260506143110 3 180 0.0 0.0 0.00 0.10 0.00 95 1022.8
20260506142109 3 180 0.0 0.0 0.00 0.13 0.00 95 1022.5
20260506141111 3 180 0.0 0.0 0.00 0.15 0.00 95 1022.4
20260506141011 3 180 0.0 0.0 0.00 0.15 0.00 95 1022.4
20260506135110 3 180 0.0 0.0 0.00 0.15 0.00 95 1022.2
20260506134126 3 180 0.0 0.0 0.00 0.15 0.00 95 1022.1
20260506133212 3 180 0.0 0.0 0.00 0.15 0.00 95 1022.1
20260506132211 3 180 0.0 0.0 0.00 0.18 0.00 95 1022.1
20260506125310 3 180 0.0 0.0 0.00 0.20 0.00 95 1021.8
20260506124311 3 180 0.0 0.0 0.00 0.23 0.00 95 1021.8
20260506123410 3 180 0.0 0.0 0.00 0.23 0.00 95 1021.8
20260506122412 3 180 0.0 0.0 0.00 0.23 0.00 95 1021.8
20260506121412 4 180 0.0 0.0 0.00 0.23 0.00 95 1021.8
20260506120411 4 180 0.0 0.0 0.00 0.23 0.00 95 1021.6
20260506115412 4 180 0.0 0.0 0.00 0.23 0.00 95 1021.6
20260506113511 4 180 0.0 0.0 0.00 0.23 0.00 95 1021.7
20260506112610 4 180 0.0 0.0 0.00 0.23 0.00 95 1021.5
20260506111613 4 180 0.0 0.0 0.00 0.23 0.00 95 1021.6
20260506110612 4 180 0.0 0.0 0.00 0.23 0.00 95 1021.5
20260506105710 4 180 0.0 0.0 0.00 0.23 0.00 95 1021.5
20260506104710 4 180 0.0 0.0 0.00 0.23 0.00 95 1021.4
20260506103712 4 180 0.0 0.0 0.00 0.23 0.00 95 1021.5
20260506102811 4 180 0.0 0.0 0.00 0.23 0.00 95 1021.2
20260506101812 4 180 0.0 0.0 0.00 0.23 0.00 95 1021.2
20260506100813 5 180 0.0 0.0 0.00 0.25 0.00 95 1020.9
20260506095813 5 180 0.0 0.0 0.00 0.25 0.00 95 1020.9
20260506094910 5 180 0.0 0.0 0.00 0.25 0.00 95 1020.8
20260506093911 5 180 0.0 0.0 0.00 0.25 0.00 95 1020.6
20260506092911 5 180 0.0 0.0 0.00 0.25 0.00 95 1020.7
20260506091912 5 180 0.0 0.0 0.00 0.28 0.00 95 1020.8
20260506090910 5 180 0.0 0.0 0.00 0.28 0.00 95 1020.9
20260506085911 5 180 0.0 0.0 0.00 0.28 0.00 95 1020.9
20260506084009 5 180 0.0 0.0 0.00 0.30 0.00 95 1020.9
20260506083011 5 180 0.0 0.0 0.00 0.30 0.00 95 1021.0
20260506081012 5 180 0.0 0.0 0.00 0.36 0.00 95 1020.9
20260506073113 5 180 0.0 0.0 0.00 0.41 0.00 95 1020.5
20260506072210 5 180 0.0 1.6 0.00 0.43 0.00 94 1020.5
20260506071212 5 135 0.0 0.0 0.00 0.46 0.00 94 1021.1
20260506070212 5 45 0.0 0.0 0.00 0.46 0.00 94 1021.4
20260506061331 5 45 0.0 0.0 0.00 0.58 0.48 94 1020.3
20260506060333 5 45 0.0 0.0 0.00 0.58 0.48 94 1020.3
20260506050433 6 45 0.0 0.0 0.00 0.71 0.48 94 1019.7
20260506044432 6 45 0.0 0.0 0.00 0.71 0.48 94 1019.7
20260506043432 6 45 0.0 0.0 0.00 0.71 0.48 94 1019.5
20260506042530 6 45 0.0 0.0 0.00 0.71 0.48 94 1019.7
20260506041532 6 45 0.0 0.0 0.00 0.71 0.48 94 1019.6
20260506034632 6 45 0.0 0.0 0.00 0.71 0.48 94 1019.2
20260506032632 6 45 0.0 0.0 0.00 0.76 0.48 94 1018.7
20260506031631 6 45 0.0 0.0 0.00 0.76 0.48 94 1018.7
20260506030631 6 45 0.0 0.0 0.00 0.76 0.48 94 1018.7
20260506025632 6 45 0.0 0.0 0.00 0.76 0.48 94 1018.6
20260506024634 6 45 0.0 0.0 0.00 0.76 0.48 94 1018.6
20260506023634 6 45 0.0 0.0 0.00 0.76 0.48 94 1018.5
20260506022632 6 45 0.0 0.0 0.00 0.76 0.48 94 1018.3
20260506021730 6 45 0.0 0.0 0.00 0.76 0.48 94 1018.2
20260506020731 6 45 0.0 0.0 0.00 0.76 0.48 94 1018.3
20260506015731 6 45 0.0 0.0 0.00 0.76 0.48 94 1018.3
20260506014830 6 67 0.0 0.0 0.00 0.76 0.48 94 1018.2
20260506013832 6 135 0.0 0.0 0.00 0.76 0.48 94 1018.3
20260506012931 6 90 0.0 0.0 0.00 0.76 0.48 94 1018.3
20260506011933 6 157 0.0 0.0 0.00 0.76 0.48 94 1018.3
20260506010933 6 157 0.0 0.0 0.00 0.76 0.48 94 1018.1
20260506005933 6 157 0.0 0.0 0.00 0.76 0.48 94 1018.2
20260506005031 6 157 0.0 0.0 0.00 0.76 0.48 94 1018.0
20260506004033 6 157 0.0 0.0 0.00 0.76 0.48 93 1018.1
20260506003033 6 157 0.0 1.6 0.00 0.79 0.48 93 1018.0
20260506002031 6 157 0.0 0.0 0.00 0.79 0.48 93 1018.1
20260506001032 6 137 1.6 6.4 0.00 0.79 0.48 93 1017.9
20260506000034 6 157 0.0 0.0 0.00 0.79 0.48 92 1017.9
20260505235031 6 157 0.0 0.0 0.00 0.79 0.48 92 1017.8
20260505233035 7 225 1.6 4.8 0.00 0.79 0.48 91 1017.6
20260505232032 7 135 0.0 0.0 0.00 0.79 0.48 91 1017.4
20260505225032 7 157 0.0 1.6 0.00 0.79 0.48 91 1017.4
20260505224031 7 157 0.0 0.0 0.00 0.79 0.48 92 1017.3
20260505223034 7 135 0.0 0.0 0.00 0.81 0.48 92 1017.4
20260505222032 7 180 0.0 0.0 0.00 0.81 0.48 92 1017.4
20260505221031 7 180 0.0 0.0 0.00 0.84 0.48 92 1017.4
20260505220033 7 103 0.0 0.0 0.00 0.89 0.48 92 1017.4
20260505215030 6 214 0.0 0.0 0.00 0.94 0.48 91 1017.4
20260505214047 7 225 0.0 0.0 0.00 0.99 0.48 91 1017.4
20260505211031 6 135 1.6 3.2 0.00 1.09 0.48 91 1017.6
20260505210035 6 135 0.0 0.0 0.00 1.12 0.48 91 1017.6
20260505205033 7 46 0.0 0.0 0.00 1.14 0.48 90 1017.5
20260505204031 7 80 0.0 0.0 0.00 1.19 0.48 90 1017.3
20260505203035 7 45 0.0 1.6 0.00 1.24 0.48 90 1017.5
20260505202032 7 112 0.0 1.6 0.00 1.30 0.48 89 1017.3
20260505201032 7 265 0.0 1.6 0.00 1.30 0.48 89 1017.2
20260505200034 7 147 0.0 0.0 0.00 1.30 0.48 89 1017.3
20260505195033 7 180 0.0 0.0 0.00 1.30 0.48 89 1017.4
20260505194131 7 174 3.2 4.8 0.00 1.30 0.48 89 1017.4
20260505193132 7 157 0.0 0.0 0.00 1.30 0.48 90 1017.3
20260505192132 7 180 0.0 1.6 0.00 1.30 0.48 89 1017.2
20260505191232 7 149 0.0 0.0 0.00 1.30 0.48 88 1017.2
20260505190331 7 202 0.0 1.6 0.00 1.30 0.48 87 1017.0